XE2KK-10 Weather Reports


Display with metric or nautical units.
time (UTC)temp
F
wind
direction
speed
MPH
gust
MPH
rain 1hr
in
rain 24hr
in
rain mn
in
humidity
%
barometer
mb
20260506155913 88 109 2.0 3.0 0.00 0.00 0.00 59 1010.7
20260506155413 86 307 0.0 0.0 0.00 0.00 0.00 61 1010.7
20260506154912 85 65 2.0 3.0 0.00 0.00 0.00 63 1010.6
20260506154412 85 22 2.0 3.0 0.00 0.00 0.00 63 1010.5
20260506153913 84 305 3.0 3.0 0.00 0.00 0.00 65 1010.5
20260506153412 84 286 0.0 0.0 0.00 0.00 0.00 65 1010.4
20260506152912 84 204 0.0 0.0 0.00 0.00 0.00 66 1010.4
20260506152412 83 31 2.0 3.0 0.00 0.00 0.00 68 1010.6
20260506151912 82 103 2.0 3.0 0.00 0.00 0.00 70 1010.4
20260506151412 83 336 2.0 3.0 0.00 0.00 0.00 69 1010.3
20260506150913 82 336 2.0 4.0 0.00 0.00 0.00 71 1010.6
20260506150413 83 289 2.0 2.0 0.00 0.00 0.00 69 1010.6
20260506145912 82 104 2.0 3.0 0.00 0.00 0.00 71 1010.3
20260506145412 83 13 4.0 4.0 0.00 0.00 0.00 71 1010.5
20260506144912 82 51 2.0 3.0 0.00 0.00 0.00 73 1010.5
20260506144412 82 47 1.0 2.0 0.00 0.00 0.00 74 1010.6
20260506143913 81 347 2.0 3.0 0.00 0.00 0.00 75 1010.5
20260506143412 81 323 3.0 4.0 0.00 0.00 0.00 75 1010.5
20260506142912 81 25 2.0 3.0 0.00 0.00 0.00 76 1010.6
20260506142412 81 344 3.0 5.0 0.00 0.00 0.00 75 1010.6
20260506141912 80 283 1.0 2.0 0.00 0.00 0.00 77 1010.6
20260506141413 80 306 2.0 2.0 0.00 0.00 0.00 76 1010.5
20260506140913 80 50 2.0 3.0 0.00 0.00 0.00 77 1010.6
20260506140903 80 9 2.0 4.0 0.00 0.00 0.00 78 1010.5
20260506140412 80 9 2.0 4.0 0.00 0.00 0.00 78 1010.5
20260506135912 79 44 3.0 4.0 0.00 0.00 0.00 79 1010.4
20260506135412 79 15 3.0 4.0 0.00 0.00 0.00 80 1010.3
20260506134913 79 31 4.0 5.0 0.00 0.00 0.00 79 1010.3
20260506134413 79 18 4.0 5.0 0.00 0.00 0.00 79 1010.2
20260506133913 79 24 3.0 4.0 0.00 0.00 0.00 78 1010.2
20260506133412 78 346 3.0 4.0 0.00 0.00 0.00 79 1010.3
20260506132912 78 356 3.0 4.0 0.00 0.00 0.00 79 1010.2
20260506132413 78 39 4.0 7.0 0.00 0.00 0.00 79 1010.0
20260506131913 79 31 3.0 4.0 0.00 0.00 0.00 77 1010.0
20260506131413 80 42 3.0 4.0 0.00 0.00 0.00 69 1010.0
20260506130912 80 25 2.0 2.0 0.00 0.00 0.00 63 1009.9
20260506130412 80 317 1.0 2.0 0.00 0.00 0.00 61 1009.8
20260506125912 79 325 0.0 0.0 0.00 0.00 0.00 63 1009.8
20260506125413 78 95 1.0 2.0 0.00 0.00 0.00 64 1009.7
20260506124912 78 185 0.0 0.0 0.00 0.00 0.00 64 1009.7
20260506124412 77 109 1.0 2.0 0.00 0.00 0.00 64 1009.5
20260506123912 77 162 2.0 3.0 0.00 0.00 0.00 65 1009.4
20260506123413 77 87 1.0 2.0 0.00 0.00 0.00 65 1009.4
20260506122913 77 165 1.0 2.0 0.00 0.00 0.00 65 1009.4
20260506122413 77 184 3.0 3.0 0.00 0.00 0.00 66 1009.6
20260506121912 76 201 1.0 2.0 0.00 0.00 0.00 68 1009.3
20260506121412 76 94 1.0 2.0 0.00 0.00 0.00 69 1009.2
20260506120912 76 94 0.0 0.0 0.00 0.00 0.00 71 1009.2
20260506120413 76 94 0.0 0.0 0.00 0.00 0.00 75 1009.2
20260506115913 76 94 2.0 2.0 0.00 0.00 0.00 74 1009.1
20260506115413 76 94 0.0 0.0 0.00 0.00 0.00 75 1008.8
20260506114912 76 94 0.0 0.0 0.00 0.00 0.00 74 1008.9
20260506114412 76 94 1.0 2.0 0.00 0.00 0.00 75 1009.0
20260506113912 76 94 2.0 2.0 0.00 0.00 0.00 76 1008.8
20260506113413 76 94 1.0 2.0 0.00 0.00 0.00 77 1008.8
20260506112913 77 94 2.0 2.0 0.00 0.00 0.00 78 1008.5
20260506112413 77 94 2.0 2.0 0.00 0.00 0.00 79 1008.6
20260506111912 77 94 1.0 2.0 0.00 0.00 0.00 78 1008.5
20260506111412 77 94 1.0 2.0 0.00 0.00 0.00 78 1008.3
20260506110912 77 94 1.0 2.0 0.00 0.00 0.00 79 1008.4
20260506110413 77 94 1.0 2.0 0.00 0.00 0.00 79 1008.4
20260506105913 77 94 2.0 2.0 0.00 0.00 0.00 79 1008.5
20260506105413 77 139 1.0 2.0 0.00 0.00 0.00 79 1008.5
20260506104912 77 139 1.0 2.0 0.00 0.00 0.00 79 1008.4
20260506104412 77 30 2.0 3.0 0.00 0.00 0.00 79 1008.3
20260506103912 78 93 0.0 0.0 0.00 0.00 0.00 78 1008.5
20260506103413 78 82 2.0 3.0 0.00 0.00 0.00 78 1008.4
20260506102913 78 306 1.0 2.0 0.00 0.00 0.00 78 1008.5
20260506102413 78 39 1.0 2.0 0.00 0.00 0.00 77 1008.4
20260506101912 78 15 2.0 2.0 0.00 0.00 0.00 77 1008.4
20260506101412 78 318 2.0 3.0 0.00 0.00 0.00 76 1008.1
20260506100913 78 15 2.0 3.0 0.00 0.00 0.00 76 1008.3
20260506100413 78 353 1.0 2.0 0.00 0.00 0.00 75 1008.1
20260506095912 78 315 2.0 2.0 0.00 0.00 0.00 75 1008.0
20260506095412 78 16 2.0 3.0 0.00 0.00 0.00 76 1008.0
20260506094912 78 275 1.0 2.0 0.00 0.00 0.00 76 1008.1
20260506094412 78 306 1.0 2.0 0.00 0.00 0.00 76 1008.1
20260506093913 79 37 2.0 2.0 0.00 0.00 0.00 76 1008.1
20260506093412 79 100 3.0 3.0 0.00 0.00 0.00 76 1007.9
20260506092912 79 23 2.0 4.0 0.00 0.00 0.00 75 1007.6
20260506092412 79 61 2.0 3.0 0.00 0.00 0.00 73 1007.8
20260506091912 79 44 2.0 2.0 0.00 0.00 0.00 70 1008.0
20260506091412 79 346 2.0 2.0 0.00 0.00 0.00 67 1007.8
20260506090913 79 91 2.0 3.0 0.00 0.00 0.00 65 1007.9
20260506090412 80 358 3.0 4.0 0.00 0.00 0.00 62 1008.0
20260506085912 80 53 2.0 2.0 0.00 0.00 0.00 62 1008.0
20260506085412 79 32 2.0 3.0 0.00 0.00 0.00 60 1008.2
20260506084912 79 12 1.0 2.0 0.00 0.00 0.00 60 1008.3
20260506084412 79 322 1.0 2.0 0.00 0.00 0.00 60 1008.3
20260506083913 79 351 3.0 3.0 0.00 0.00 0.00 60 1007.6
20260506083412 79 316 1.0 2.0 0.00 0.00 0.00 60 1007.8
20260506082912 80 263 2.0 2.0 0.00 0.00 0.00 59 1007.9
20260506082413 80 281 2.0 3.0 0.00 0.00 0.00 59 1007.8
20260506081912 80 263 1.0 2.0 0.00 0.00 0.00 58 1007.7
20260506081412 81 218 3.0 5.0 0.00 0.00 0.00 58 1007.7
20260506080913 81 205 2.0 3.0 0.00 0.00 0.00 58 1007.7
20260506080412 81 249 2.0 2.0 0.00 0.00 0.00 58 1007.6
20260506073412 82 217 1.0 2.0 0.00 0.00 0.00 57 1007.6
20260506072912 82 229 1.0 2.0 0.00 0.00 0.00 56 1007.4
20260506072412 82 225 2.0 2.0 0.00 0.00 0.00 56 1007.6
20260506071912 82 220 1.0 2.0 0.00 0.00 0.00 55 1007.7
20260506071412 83 205 1.0 2.0 0.00 0.00 0.00 55 1007.3
20260506070913 83 207 2.0 2.0 0.00 0.00 0.00 54 1007.6
20260506070412 83 230 2.0 3.0 0.00 0.00 0.00 54 1007.3
20260506062412 84 201 3.0 3.0 0.00 0.00 0.00 52 1007.7
20260506061912 84 200 4.0 4.0 0.00 0.00 0.00 52 1007.2
20260506061412 84 189 3.0 4.0 0.00 0.00 0.00 52 1007.3
20260506060913 84 196 2.0 2.0 0.00 0.00 0.00 52 1007.1
20260506060412 84 225 1.0 2.0 0.00 0.00 0.00 52 1007.2
20260506051412 85 193 3.0 4.0 0.00 0.00 0.00 49 1007.1
20260506050913 85 207 3.0 3.0 0.00 0.00 0.00 49 1006.9
20260506050413 85 193 3.0 4.0 0.00 0.00 0.00 48 1006.9
20260506044912 85 242 1.0 2.0 0.00 0.00 0.00 48 1006.9
20260506044412 86 198 2.0 3.0 0.00 0.00 0.00 47 1006.7
20260506043913 86 220 3.0 4.0 0.00 0.00 0.00 47 1006.9
20260506043412 86 220 4.0 5.0 0.00 0.00 0.00 46 1006.8
20260506042912 86 212 4.0 6.0 0.00 0.00 0.00 45 1006.5
20260506042412 86 205 3.0 4.0 0.00 0.00 0.00 44 1006.4
20260506041912 86 234 2.0 4.0 0.00 0.00 0.00 44 1006.3
20260506041412 87 192 3.0 4.0 0.00 0.00 0.00 44 1006.3
20260506040913 87 235 3.0 4.0 0.00 0.00 0.00 44 1006.4
20260506040412 88 240 2.0 3.0 0.00 0.00 0.00 44 1006.2
20260506035912 88 246 2.0 3.0 0.00 0.00 0.00 43 1006.3
20260506035412 88 244 3.0 4.0 0.00 0.00 0.00 43 1005.9
20260506034912 88 282 4.0 5.0 0.00 0.00 0.00 42 1006.0
20260506034412 88 253 2.0 4.0 0.00 0.00 0.00 42 1006.1
20260506033913 88 277 3.0 4.0 0.00 0.00 0.00 41 1006.0
20260506033412 89 301 2.0 3.0 0.00 0.00 0.00 41 1005.7
20260506032912 89 249 2.0 3.0 0.00 0.00 0.00 40 1005.7
20260506032412 89 271 3.0 4.0 0.00 0.00 0.00 40 1005.5
20260506031912 89 290 2.0 2.0 0.00 0.00 0.00 40 1005.6
20260506031412 89 265 3.0 4.0 0.00 0.00 0.00 39 1005.5
20260506030913 90 278 4.0 5.0 0.00 0.00 0.00 38 1005.5
20260506030412 90 328 3.0 5.0 0.00 0.00 0.00 37 1005.3
20260506025912 90 323 6.0 9.0 0.00 0.00 0.00 36 1005.4
20260506025412 90 227 6.0 9.0 0.00 0.00 0.00 35 1005.4
20260506024912 90 277 3.0 4.0 0.00 0.00 0.00 35 1005.3
20260506024412 90 259 4.0 5.0 0.00 0.00 0.00 35 1005.0
20260506023913 90 219 2.0 2.0 0.00 0.00 0.00 35 1005.2
20260506023412 90 324 3.0 4.0 0.00 0.00 0.00 34 1005.2
20260506022912 92 254 2.0 3.0 0.00 0.00 0.00 33 1005.0
20260506022412 92 300 4.0 6.0 0.00 0.00 0.00 32 1004.8
20260506021912 92 314 4.0 4.0 0.00 0.00 0.00 32 1004.9
20260506021412 93 7 7.0 10.0 0.00 0.00 0.00 32 1004.8
20260506020913 93 327 3.0 5.0 0.00 0.00 0.00 32 1004.6
20260506020412 93 274 4.0 5.0 0.00 0.00 0.00 32 1004.6
20260506015912 93 291 6.0 6.0 0.00 0.00 0.00 31 1004.6
20260506015412 94 292 4.0 5.0 0.00 0.00 0.00 31 1004.8
20260506014912 94 326 4.0 4.0 0.00 0.00 0.00 30 1004.4
20260506014412 94 308 5.0 7.0 0.00 0.00 0.00 30 1004.6
20260506013913 95 13 4.0 5.0 0.00 0.00 0.00 30 1004.5
20260506013412 95 323 6.0 9.0 0.00 0.00 0.00 29 1004.6
20260506012912 95 280 4.0 5.0 0.00 0.00 0.00 30 1004.4
20260506012412 95 354 6.0 7.0 0.00 0.00 0.00 30 1004.4
20260506011912 95 323 4.0 5.0 0.00 0.00 0.00 30 1004.0
20260506011412 95 333 5.0 9.0 0.00 0.00 0.00 30 1004.1
20260506010913 96 321 2.0 4.0 0.00 0.00 0.00 29 1004.0
20260506010412 96 261 4.0 5.0 0.00 0.00 0.00 28 1003.8
20260506005912 97 252 1.0 2.0 0.00 0.00 0.00 29 1003.9
20260506005412 97 262 2.0 3.0 0.00 0.00 0.00 28 1003.7
20260506004912 97 334 4.0 5.0 0.00 0.00 0.00 28 1003.7
20260506004412 97 358 3.0 4.0 0.00 0.00 0.00 28 1003.6
20260506003913 98 266 3.0 4.0 0.00 0.00 0.00 28 1003.5
20260506003413 99 263 5.0 6.0 0.00 0.00 0.00 26 1003.5
20260506002912 99 62 1.0 2.0 0.00 0.00 0.00 26 1003.3
20260506002412 99 330 8.0 11.0 0.00 0.00 0.00 26 1003.2
20260506001912 100 301 6.0 7.0 0.00 0.00 0.00 25 1003.4
20260506001412 101 10 3.0 4.0 0.00 0.00 0.00 23 1003.2
20260506000913 101 19 2.0 3.0 0.00 0.00 0.00 23 1003.3
20260506000413 101 246 2.0 4.0 0.00 0.00 0.00 23 1003.2
20260505235913 101 320 1.0 2.0 0.00 0.00 0.00 23 1003.1
20260505235412 102 260 3.0 4.0 0.00 0.00 0.00 22 1003.2
20260505234912 104 355 3.0 4.0 0.00 0.00 0.00 18 1003.2
20260505234412 104 229 0.0 0.0 0.00 0.00 0.00 15 1003.1
20260505233913 104 121 1.0 3.0 0.00 0.00 0.00 15 1003.1
20260505233412 103 121 2.0 3.0 0.00 0.00 0.00 15 1003.2
20260505232912 104 60 1.0 2.0 0.00 0.00 0.00 16 1003.0
20260505232412 104 71 5.0 5.0 0.00 0.00 0.00 15 1003.1
20260505231912 104 107 2.0 3.0 0.00 0.00 0.00 15 1003.2
20260505231412 104 90 2.0 3.0 0.00 0.00 0.00 15 1003.0
20260505230913 104 16 3.0 3.0 0.00 0.00 0.00 16 1003.2
20260505230412 105 237 2.0 2.0 0.00 0.00 0.00 15 1003.3
20260505225912 104 227 0.0 0.0 0.00 0.00 0.00 15 1003.2
20260505225412 104 320 1.0 2.0 0.00 0.00 0.00 16 1003.1
20260505224912 104 15 1.0 2.0 0.00 0.00 0.00 16 1003.4
20260505224412 104 2 2.0 2.0 0.00 0.00 0.00 16 1003.3
20260505223913 104 312 2.0 2.0 0.00 0.00 0.00 16 1003.4
20260505223412 104 49 3.0 4.0 0.00 0.00 0.00 17 1003.5
20260505222912 104 18 2.0 4.0 0.00 0.00 0.00 17 1003.5
20260505222412 105 76 3.0 4.0 0.00 0.00 0.00 17 1003.4
20260505221912 106 259 2.0 3.0 0.00 0.00 0.00 16 1003.7
20260505221412 105 251 2.0 2.0 0.00 0.00 0.00 16 1003.7
20260505220913 105 333 3.0 4.0 0.00 0.00 0.00 16 1003.7
20260505220412 104 100 2.0 3.0 0.00 0.00 0.00 17 1003.8
20260505215912 105 66 4.0 5.0 0.00 0.00 0.00 17 1003.8
20260505215412 106 271 2.0 4.0 0.00 0.00 0.00 16 1003.7
20260505214912 105 172 2.0 3.0 0.00 0.00 0.00 16 1004.0
20260505214412 104 156 1.0 2.0 0.00 0.00 0.00 17 1004.3
20260505213913 104 122 2.0 3.0 0.00 0.00 0.00 18 1004.2
20260505213412 105 193 2.0 2.0 0.00 0.00 0.00 18 1004.4
20260505212912 103 193 3.0 4.0 0.00 0.00 0.00 18 1004.5
20260505212412 103 20 7.0 7.0 0.00 0.00 0.00 19 1004.4
20260505211912 104 70 3.0 4.0 0.00 0.00 0.00 20 1004.4
20260505211412 104 263 3.0 4.0 0.00 0.00 0.00 19 1004.6
20260505210913 104 43 2.0 3.0 0.00 0.00 0.00 19 1005.0
20260505210412 103 290 2.0 2.0 0.00 0.00 0.00 21 1004.7
20260505205912 103 37 4.0 5.0 0.00 0.00 0.00 21 1004.9
20260505205412 102 333 3.0 4.0 0.00 0.00 0.00 21 1005.1
20260505204912 102 138 4.0 5.0 0.00 0.00 0.00 21 1005.3
20260505204412 102 260 1.0 2.0 0.00 0.00 0.00 21 1005.7
20260505203913 102 26 7.0 11.0 0.00 0.00 0.00 23 1005.5
20260505203412 101 127 4.0 5.0 0.00 0.00 0.00 23 1005.7
20260505202912 101 93 1.0 2.0 0.00 0.00 0.00 23 1005.6
20260505202412 101 357 6.0 7.0 0.00 0.00 0.00 24 1005.7
20260505201912 101 262 1.0 3.0 0.00 0.00 0.00 24 1005.9
20260505201412 101 74 3.0 3.0 0.00 0.00 0.00 24 1005.9
20260505200913 100 102 4.0 4.0 0.00 0.00 0.00 25 1006.0
20260505200412 101 265 4.0 5.0 0.00 0.00 0.00 25 1006.3
20260505195912 100 312 2.0 2.0 0.00 0.00 0.00 26 1006.3
20260505195412 99 250 2.0 2.0 0.00 0.00 0.00 27 1006.5
20260505194912 99 24 4.0 5.0 0.00 0.00 0.00 27 1006.6
20260505194412 99 99 3.0 3.0 0.00 0.00 0.00 27 1006.3
20260505193913 98 97 1.0 2.0 0.00 0.00 0.00 28 1006.6
20260505193412 97 31 2.0 3.0 0.00 0.00 0.00 29 1006.6
20260505192912 98 106 3.0 4.0 0.00 0.00 0.00 29 1006.8
20260505192412 97 226 2.0 2.0 0.00 0.00 0.00 28 1006.7
20260505191913 97 359 6.0 7.0 0.00 0.00 0.00 30 1006.9
20260505191413 97 98 2.0 2.0 0.00 0.00 0.00 30 1007.1
20260505190913 96 257 1.0 2.0 0.00 0.00 0.00 30 1007.2
20260505190412 96 229 2.0 2.0 0.00 0.00 0.00 31 1007.3
20260505185912 96 101 1.0 2.0 0.00 0.00 0.00 31 1007.3
20260505185412 96 275 2.0 3.0 0.00 0.00 0.00 31 1007.5
20260505184913 94 66 4.0 5.0 0.00 0.00 0.00 33 1007.6
20260505184413 95 108 2.0 3.0 0.00 0.00 0.00 33 1007.6
20260505183913 96 261 1.0 2.0 0.00 0.00 0.00 32 1007.8
20260505183412 94 314 2.0 2.0 0.00 0.00 0.00 34 1007.8
20260505182912 94 277 3.0 4.0 0.00 0.00 0.00 35 1007.9
20260505182412 94 327 6.0 7.0 0.00 0.00 0.00 35 1008.1
20260505181913 92 17 2.0 3.0 0.00 0.00 0.00 36 1008.0
20260505181413 91 44 3.0 4.0 0.00 0.00 0.00 37 1008.1
20260505180913 92 352 3.0 4.0 0.00 0.00 0.00 37 1008.2
20260505180412 93 129 2.0 3.0 0.00 0.00 0.00 37 1008.2
20260505175912 93 175 3.0 4.0 0.00 0.00 0.00 35 1008.1
20260505175412 93 264 3.0 3.0 0.00 0.00 0.00 37 1008.1
20260505174912 92 286 4.0 4.0 0.00 0.00 0.00 38 1008.4
20260505174412 92 260 2.0 2.0 0.00 0.00 0.00 39 1008.4
20260505173913 90 273 2.0 3.0 0.00 0.00 0.00 43 1008.5
20260505173412 90 30 0.0 0.0 0.00 0.00 0.00 42 1008.6
20260505172912 88 340 1.0 2.0 0.00 0.00 0.00 44 1008.8
20260505172412 90 207 1.0 2.0 0.00 0.00 0.00 41 1008.7
20260505171913 89 313 0.0 0.0 0.00 0.00 0.00 42 1008.8
20260505171413 88 224 2.0 3.0 0.00 0.00 0.00 44 1008.8
20260505170913 86 65 1.0 2.0 0.00 0.00 0.00 47 1008.7
20260505170412 88 81 3.0 4.0 0.00 0.00 0.00 45 1008.9
20260505165912 87 121 1.0 2.0 0.00 0.00 0.00 44 1008.9
20260505165412 86 159 2.0 2.0 0.00 0.00 0.00 47 1008.9
20260505164913 86 35 2.0 3.0 0.00 0.00 0.00 47 1008.8
20260505164413 86 17 3.0 4.0 0.00 0.00 0.00 47 1008.9
20260505163913 86 282 0.0 0.0 0.00 0.00 0.00 47 1009.2
20260505163412 85 221 1.0 2.0 0.00 0.00 0.00 48 1009.1
20260505162912 84 279 1.0 2.0 0.00 0.00 0.00 50 1009.3
20260505162412 84 19 2.0 3.0 0.00 0.00 0.00 49 1009.2
20260505161913 84 46 2.0 2.0 0.00 0.00 0.00 48 1009.2
20260505161413 85 6 4.0 5.0 0.00 0.00 0.00 49 1009.3
20260505160913 84 217 2.0 4.0 0.00 0.00 0.00 50 1009.3
20260505160412 84 351 3.0 4.0 0.00 0.00 0.00 52 1009.5